Theta_e
329 328 328 329 330 330 330 331 331 331 331 331 331 331 332 332 332 332 333 332 332 330 330 330 330 329 329 331 330 329 326 320 319 317 317 322 328 334 334 334 331 331 331 316 313 309 305 305 304 305 305 307 307 305 310 307 307 304 297 294 292 293 294 294 294 292 295 297 297 298 298 300 297 300 301 301 300 300 302 308 310 320 320 323 324 327 328 327
329 329 329 329 330 330 330 330 330 331 331 331 332 331 331 332 332 332 332 332 332 330 329 330 330 329 331 330 329 328 324 321 317 316 316 330 333 334 332 332 331 331 325 314 309 307 304 303 303 303 302 301 313 304 310 306 307 298 295 294 291 294 296 297 296 297 299 297 299 299 298 300 299 298 300 298 297 298 298 300 309 316 320 324 325 326 326 326
328 329 328 329 329 329 330 330 330 330 330 330 331 331 331 331 331 332 331 331 331 330 329 330 330 330 330 329 328 328 324 319 317 314 319 332 334 333 333 332 333 333 327 316 311 308 307 304 304 302 301 299 303 302 306 303 306 300 297 292 293 297 297 295 298 300 300 300 299 299 298 299 299 299 300 297 296 295 296 298 302 313 317 320 322 324 325 325
328 328 328 327 328 329 329 330 330 330 330 330 330 330 330 330 330 331 331 331 331 330 329 329 329 329 328 328 329 325 322 316 311 317 324 333 335 334 333 334 335 333 329 323 315 311 312 307 304 302 303 300 299 305 301 302 301 300 297 294 296 298 296 297 297 298 300 302 299 299 297 297 298 299 300 296 295 294 295 300 302 306 318 320 322 323 324 324
327 327 327 328 328 329 329 329 330 330 330 330 330 330 329 329 330 331 331 331 330 330 330 329 329 329 328 328 327 325 317 308 310 321 326 334 336 335 334 335 334 329 328 322 315 311 308 305 303 302 301 295 299 302 298 300 302 302 297 298 298 296 296 298 298 296 298 298 300 296 297 297 298 299 298 296 293 291 296 299 302 309 321 321 321 322 323 323
325 327 327 327 328 329 329 329 329 329 330 330 329 329 329 329 330 330 331 331 330 330 330 330 329 328 328 328 325 322 315 295 315 318 331 335 336 336 335 335 333 330 324 318 314 310 305 302 301 298 296 295 295 296 297 300 303 296 297 298 296 296 296 298 297 296 297 299 298 297 298 299 297 297 296 296 294 296 299 298 300 310 322 324 324 323 322 322
324 326 327 326 326 328 328 329 329 329 330 329 329 329 329 329 329 329 330 330 330 330 330 330 329 328 327 327 323 319 312 313 317 320 331 335 335 334 334 334 334 328 324 317 313 307 304 301 300 297 297 297 295 295 298 300 302 299 295 296 297 297 297 297 297 295 297 300 299 299 299 298 296 295 297 296 297 299 300 304 300 310 321 324 322 322 322 322
323 325 325 325 326 327 327 328 328 329 329 329 329 329 329 329 329 329 329 329 329 329 329 329 328 327 327 322 316 311 311 310 320 322 333 334 334 333 332 329 328 326 320 316 312 305 302 302 299 300 295 294 295 296 298 298 300 297 296 297 297 297 297 297 295 294 296 297 296 298 298 297 296 296 297 297 298 299 304 309 307 312 320 323 322 321 322 322
322 324 324 324 324 325 326 327 328 328 328 328 328 328 329 329 329 329 328 329 329 329 329 329 327 327 327 321 314 309 308 319 328 331 330 331 330 331 328 325 326 321 318 314 312 308 304 306 300 298 293 294 298 296 296 296 293 297 296 297 297 297 298 296 295 295 295 297 296 297 294 296 297 298 297 297 298 299 303 310 311 313 317 320 321 321 321 321
322 324 324 324 324 324 325 326 327 328 328 328 328 328 329 329 328 328 328 329 329 329 329 328 327 326 322 317 312 305 314 326 332 331 326 328 327 327 325 325 324 319 312 309 307 305 302 305 301 303 299 297 298 296 298 297 293 298 296 296 296 296 298 297 297 297 297 298 296 295 294 296 296 297 292 296 298 300 304 309 311 312 313 317 319 319 320 321
323 324 324 322 322 324 325 326 326 327 328 327 328 328 329 328 327 327 328 328 328 328 328 328 327 325 317 317 308 304 313 325 329 326 322 325 324 323 322 321 321 317 313 308 306 306 304 303 304 303 301 296 297 294 297 297 298 297 296 295 296 297 297 296 295 296 296 297 296 295 295 296 296 296 293 296 297 301 302 304 308 311 312 313 316 317 318 321
323 324 324 323 322 324 325 325 326 326 327 327 327 328 327 327 327 326 327 327 328 328 328 328 327 322 317 312 308 310 311 324 328 323 323 323 322 323 322 321 319 316 312 304 305 307 306 306 307 302 295 299 294 296 295 297 299 296 296 294 295 296 296 296 295 296 297 296 297 297 295 295 295 294 297 296 298 300 302 302 304 306 309 311 313 315 315 319
322 323 324 324 323 324 325 325 325 326 326 326 327 326 326 326 326 326 326 326 327 328 327 327 325 318 312 303 308 313 313 326 322 320 319 317 315 318 319 317 316 313 310 306 306 308 308 306 307 300 301 299 295 293 297 301 298 297 297 292 294 292 290 294 297 296 297 297 297 297 288 288 293 297 297 296 298 297 299 300 300 300 302 304 309 312 314 316
321 322 323 323 323 323 324 324 325 325 326 326 326 326 325 325 325 325 326 325 326 327 327 327 321 315 310 305 310 312 314 320 320 318 315 313 312 309 310 312 311 307 314 306 308 307 308 307 307 303 306 299 296 302 299 296 297 291 293 293 287 288 286 293 296 295 296 298 297 297 288 287 291 293 294 295 297 297 297 297 298 300 300 301 302 308 310 312
321 321 322 323 322 322 323 324 325 325 325 325 325 325 324 324 325 324 325 325 326 326 325 325 318 311 303 305 309 313 324 318 314 314 311 310 307 306 306 308 308 309 310 307 307 309 308 307 305 300 296 300 302 297 292 294 292 292 290 285 288 286 287 293 295 294 294 296 297 295 289 290 292 292 295 295 296 297 296 295 294 298 299 299 299 303 307 310
321 321 322 322 322 322 322 323 324 325 325 325 324 323 323 324 324 324 325 324 324 324 323 316 314 312 302 300 304 323 312 309 309 311 309 310 308 305 306 305 306 306 306 304 307 307 307 305 300 298 297 299 297 292 290 290 290 291 288 284 286 286 287 290 295 294 295 294 295 293 288 290 291 292 296 295 295 294 294 294 294 296 299 299 298 300 305 308
321 321 321 322 322 322 322 323 323 323 323 323 323 322 322 322 323 323 323 323 322 322 317 310 313 313 299 305 311 305 303 307 309 309 308 308 308 307 305 304 303 303 303 305 306 304 305 301 302 299 301 293 292 294 287 285 283 285 287 284 286 287 286 286 291 295 296 293 291 292 290 289 291 293 294 296 294 293 293 294 294 295 297 298 297 299 304 307
321 321 321 321 322 322 322 322 322 323 322 322 321 321 320 322 323 321 320 319 319 317 316 316 313 305 300 304 299 302 306 305 307 308 308 307 307 307 305 303 302 301 302 301 306 299 301 296 297 292 293 294 292 290 286 281 284 282 285 285 286 286 288 289 288 292 295 295 291 291 289 291 293 293 294 295 294 293 294 295 295 294 295 296 297 299 302 305
322 322 321 321 321 321 321 322 322 322 322 321 322 322 322 321 317 316 313 312 308 302 297 298 301 292 292 299 303 304 306 307 308 308 305 306 306 307 305 304 303 300 297 296 295 298 299 297 298 290 289 290 290 291 288 287 289 288 288 287 286 286 286 287 291 293 295 291 291 289 290 291 293 292 292 293 293 293 294 293 294 294 293 294 297 299 300 302
321 322 321 322 321 321 321 322 322 322 321 319 316 314 311 306 305 303 310 309 303 301 301 301 305 300 298 302 301 306 309 309 303 304 305 308 306 304 302 301 300 299 296 292 294 295 298 290 288 287 289 291 292 292 292 293 292 292 291 289 288 288 289 291 292 293 293 292 290 290 291 290 291 291 293 293 292 292 292 293 294 295 295 295 295 297 298 299
320 321 321 321 321 320 321 321 321 320 320 316 313 308 299 301 296 294 301 304 305 304 300 301 305 303 298 302 304 305 301 301 304 302 306 309 306 303 298 299 295 292 292 294 294 297 295 289 288 290 292 293 293 293 292 292 292 291 289 287 286 289 287 290 291 293 292 291 288 288 288 289 290 290 290 291 292 293 293 293 294 295 295 296 295 296 296 298
320 320 320 320 320 320 321 320 320 320 319 315 311 305 305 307 308 309 306 296 302 305 305 301 305 302 304 305 307 308 305 299 299 302 306 306 302 298 296 296 293 290 292 293 293 291 289 287 290 292 294 294 294 294 293 291 291 292 288 287 285 286 288 292 292 293 293 291 285 287 287 290 292 292 291 291 293 294 295 296 296 296 295 295 296 296 297 296
320 319 320 320 320 320 320 320 319 319 315 310 306 306 305 310 312 312 307 301 297 303 303 300 300 299 302 306 306 307 299 297 295 300 303 304 300 298 297 293 292 292 292 293 289 287 285 288 293 294 294 293 292 292 291 293 293 288 287 286 285 288 287 286 289 292 292 288 287 287 287 289 291 292 293 294 293 294 295 296 296 296 296 296 297 298 298 297
319 318 319 319 320 320 320 319 319 315 311 310 307 306 311 311 312 309 302 293 293 298 300 300 301 299 300 300 305 302 299 298 299 297 305 303 298 298 297 294 292 291 290 291 291 289 287 291 293 293 293 293 291 291 290 289 287 290 291 288 288 289 287 286 288 290 291 290 290 287 285 286 287 289 291 294 295 294 294 295 296 296 297 298 298 298 299 299
318 318 318 318 319 319 319 319 312 310 312 310 307 309 310 308 310 308 300 295 293 296 301 300 303 302 303 307 306 299 298 300 300 303 305 303 298 297 295 297 294 290 291 292 292 290 289 291 294 292 292 292 292 290 290 291 287 288 290 292 291 289 289 288 289 288 284 285 287 288 278 277 282 286 288 291 290 292 295 292 294 295 296 295 295 297 298 299
318 318 318 318 319 318 319 311 309 312 309 306 308 311 312 309 308 305 300 289 284 291 298 291 304 297 308 301 304 300 301 295 302 304 305 303 306 298 297 294 294 289 291 291 291 290 290 291 292 292 291 291 292 290 292 292 287 286 287 293 291 290 289 289 288 287 281 280 287 287 280 275 282 285 286 288 288 291 292 293 295 294 295 295 296 297 297 298
318 318 318 318 318 319 311 304 313 311 304 305 311 312 310 308 306 305 295 284 281 292 290 301 299 299 307 302 303 299 287 290 301 304 303 306 302 303 295 292 293 294 295 294 290 286 288 290 291 293 292 291 290 289 292 292 288 285 290 293 292 290 289 288 288 284 282 284 289 287 281 278 278 285 289 289 289 289 290 292 293 294 294 295 297 298 297 299
318 318 318 318 318 317 311 312 309 306 306 310 313 312 310 307 304 300 292 276 276 296 290 293 299 308 306 302 304 295 294 301 294 298 303 303 301 298 295 291 292 292 294 291 284 292 290 288 290 291 290 289 289 290 293 293 289 288 293 294 292 291 290 290 288 284 284 282 280 281 287 282 276 282 286 287 288 289 291 292 293 294 294 295 296 298 298 297
318 317 317 317 318 317 315 311 309 305 310 312 311 310 309 306 305 296 284 276 290 289 305 293 307 303 302 301 299 297 297 299 293 298 301 303 303 296 291 291 292 293 292 291 288 289 290 291 293 294 292 289 291 290 292 294 290 294 294 295 294 293 292 290 283 285 284 280 276 280 283 278 278 280 284 284 286 287 289 292 293 291 292 294 295 294 295 297
317 317 317 317 316 312 311 311 308 310 312 312 310 306 307 304 297 287 280 273 293 284 294 295 296 294 298 294 295 296 295 295 296 297 300 298 299 299 296 296 294 293 291 291 289 289 292 293 293 294 291 292 290 292 292 294 293 295 293 292 289 287 285 283 283 280 281 276 276 279 283 281 277 280 284 286 286 288 291 289 289 294 296 295 294 295 297 298
317 317 317 317 310 310 310 305 308 312 311 311 309 306 303 297 287 281 275 284 293 291 294 292 291 298 293 291 290 294 295 294 295 297 295 297 294 296 294 294 295 289 285 287 285 289 289 292 292 290 293 291 292 292 293 294 294 294 289 285 288 286 283 280 281 279 276 271 274 280 282 283 276 276 282 286 286 287 289 289 290 293 296 296 296 296 296 297
316 317 318 314 313 313 306 303 309 312 311 310 308 301 296 283 287 279 277 295 282 286 288 288 294 294 292 294 292 292 291 293 295 295 293 293 291 290 291 288 290 284 283 284 284 286 285 287 291 291 294 293 290 290 289 291 291 289 288 286 283 279 277 275 276 275 273 272 279 280 282 283 281 284 286 288 290 290 288 289 292 292 295 295 295 295 295 294
316 316 316 314 312 309 309 310 312 310 310 310 304 298 288 282 275 284 283 287 283 290 287 294 292 293 292 290 289 292 294 290 293 293 294 292 291 290 291 290 291 288 281 281 284 283 284 285 290 290 291 293 292 288 285 286 287 287 286 283 280 273 271 269 268 271 272 278 280 281 282 281 281 285 291 293 295 293 289 289 291 294 296 296 296 295 295 295
316 316 312 311 311 311 310 311 311 309 307 306 299 291 287 280 278 291 285 285 286 291 292 290 292 292 291 287 289 293 288 292 292 291 293 289 290 288 289 290 291 289 285 285 285 283 278 278 285 288 285 291 292 290 291 289 289 289 287 288 284 281 273 271 273 273 275 275 278 281 280 277 278 284 286 290 293 292 288 290 290 291 292 294 295 295 295 296
316 314 311 311 310 310 310 311 311 309 305 300 293 287 280 280 284 283 282 285 287 290 289 294 291 289 288 288 290 293 291 286 292 291 290 289 287 288 288 289 291 290 287 285 283 282 284 281 286 290 290 291 291 293 293 291 289 287 288 288 285 284 282 276 277 276 273 276 276 278 278 280 283 286 290 290 290 292 291 291 291 292 292 292 293 294 294 295
313 310 311 307 307 308 311 311 310 308 302 295 288 283 282 285 282 287 285 291 290 287 289 292 290 287 286 284 289 291 293 289 290 290 287 289 290 288 290 290 290 292 289 285 283 279 281 280 287 289 290 290 291 292 294 293 284 287 287 283 285 288 285 279 279 279 277 275 274 277 280 281 284 289 293 293 290 291 290 291 291 291 290 290 292 292 293 295
308 308 304 306 307 309 310 310 310 306 300 293 287 282 287 288 289 290 293 290 290 291 289 284 285 286 283 284 286 289 290 293 290 289 285 289 286 289 289 290 294 291 293 290 284 284 283 281 286 286 287 290 290 288 293 290 292 287 282 287 290 291 288 284 278 276 274 272 273 278 278 277 279 280 287 289 289 289 290 291 291 290 290 291 293 292 293 296
305 305 305 305 307 309 310 310 308 303 297 291 285 289 289 287 293 292 292 292 292 292 288 286 286 289 285 285 285 288 290 289 287 287 284 289 284 293 290 290 293 294 292 291 288 284 288 280 284 286 286 288 291 291 291 291 293 290 287 293 287 282 282 283 281 273 272 271 269 275 277 276 279 281 284 286 288 289 290 290 288 289 290 292 292 293 295 295
305 303 298 304 308 310 309 309 305 299 293 287 286 287 289 292 294 292 294 294 293 291 287 288 286 288 288 285 287 289 290 286 288 286 284 286 282 290 292 293 291 293 294 291 287 285 285 280 281 285 287 288 287 286 284 284 290 291 291 288 289 285 283 279 281 278 278 271 272 272 275 277 281 281 283 288 287 288 290 288 288 289 291 293 293 296 296 295
301 298 296 306 309 309 309 307 300 295 290 285 286 285 292 291 292 294 295 294 290 290 287 288 289 287 288 288 289 287 290 288 288 286 287 286 286 291 291 294 291 292 294 292 290 291 284 283 276 282 287 287 284 284 284 287 285 284 285 283 286 284 285 283 284 279 275 270 270 267 271 274 280 285 287 291 291 288 289 291 291 291 291 292 293 297 296 296
303 298 297 307 308 309 307 302 294 289 288 288 288 287 291 289 292 292 295 296 293 293 290 290 289 287 288 288 288 291 287 287 289 287 287 286 288 283 291 294 293 292 292 291 291 286 282 282 279 281 282 282 281 285 287 288 289 288 288 286 287 283 282 280 280 282 278 277 272 270 272 274 283 287 290 290 290 288 289 291 291 291 292 293 295 296 296 296
298 291 294 307 308 307 301 291 290 292 286 283 286 289 290 298 292 292 293 295 295 291 296 291 291 290 289 290 290 290 289 287 289 288 286 284 289 288 291 295 295 295 293 286 288 289 285 282 282 276 280 282 285 289 286 287 286 288 287 287 289 286 285 280 277 280 279 278 275 270 273 277 286 287 286 288 288 290 291 291 292 292 291 295 296 296 295 294
296 293 304 307 308 304 297 289 290 289 284 286 291 291 294 293 292 292 293 293 292 293 292 291 291 290 291 291 290 290 290 287 289 287 287 288 289 291 293 295 296 295 295 286 290 289 290 283 280 281 284 285 286 287 287 286 288 288 287 285 285 285 284 282 280 280 282 278 278 278 275 276 283 285 287 287 287 288 290 290 292 291 293 295 295 295 295 295
297 296 299 305 307 302 293 284 284 285 285 290 291 291 294 292 294 291 291 292 292 292 291 290 291 293 291 292 292 289 292 285 288 289 287 289 290 294 294 295 297 294 294 291 291 293 283 282 284 276 275 278 280 282 283 285 287 283 283 285 286 288 286 281 282 279 280 279 280 278 275 278 284 285 288 287 289 289 290 290 289 292 293 294 295 296 295 295
298 300 300 301 304 301 290 289 288 287 288 289 289 289 290 290 293 292 293 291 292 291 291 289 291 293 290 292 291 291 292 289 285 290 288 289 291 291 294 295 297 294 296 295 296 295 284 283 284 277 275 273 270 273 278 282 282 282 283 284 287 287 285 283 281 280 278 279 280 277 277 286 285 286 287 287 286 288 287 288 288 290 294 295 295 296 296 296
293 286 293 296 300 297 297 294 290 289 287 287 287 287 289 289 292 292 294 293 295 293 291 292 292 294 290 291 288 288 289 289 289 286 288 287 287 290 290 292 294 296 295 296 295 294 282 286 286 284 282 281 282 282 284 286 284 284 285 286 286 287 287 287 284 281 281 281 281 284 286 286 284 285 285 286 286 286 288 287 290 290 289 293 294 295 295 296
295 290 288 287 294 295 293 295 290 291 289 292 286 288 288 290 289 291 292 289 294 293 292 293 293 291 289 290 288 288 289 288 286 289 286 286 285 286 289 289 289 291 295 293 294 289 282 283 285 285 284 284 283 284 287 290 285 287 285 284 285 287 286 286 284 283 283 281 278 284 286 284 286 285 286 287 286 286 287 288 289 288 289 295 295 293 294 294
288 292 295 295 289 286 288 289 292 290 291 292 288 290 288 288 288 287 291 292 293 294 291 291 293 293 292 290 289 285 286 286 286 286 285 283 285 286 289 288 289 291 291 290 290 288 285 285 283 283 283 284 284 287 288 288 287 287 287 286 285 287 285 285 285 287 284 283 282 287 286 284 288 287 288 288 289 289 290 290 291 291 290 292 294 295 294 295
290 289 292 295 287 288 291 291 292 291 290 291 287 290 288 289 287 289 288 290 292 292 291 286 289 291 292 292 291 286 287 284 281 284 283 283 284 282 281 286 289 287 288 288 289 284 286 280 281 284 283 283 284 286 285 286 284 284 286 286 287 285 286 287 287 288 287 286 288 288 285 286 289 288 289 289 289 289 290 289 289 290 290 293 295 294 294 294
286 290 287 289 288 290 290 292 290 289 287 291 286 288 289 289 288 290 291 290 287 289 291 290 289 289 291 291 291 288 289 290 289 286 285 287 283 282 284 284 285 286 286 287 289 288 287 280 287 282 280 280 283 284 284 284 284 282 282 285 286 287 287 288 288 288 287 286 287 286 283 285 291 290 288 288 289 289 290 288 290 291 289 292 293 293 293 294
289 288 289 289 286 288 291 290 290 288 287 287 285 287 289 289 289 291 291 293 292 290 290 290 290 289 290 291 290 290 292 291 291 292 290 292 288 290 290 284 290 287 287 287 287 287 287 278 283 280 279 276 281 283 282 282 282 281 281 283 284 285 284 286 285 287 284 285 286 285 284 286 290 290 290 289 287 289 290 289 289 290 290 291 293 293 294 293
292 292 290 291 284 290 289 290 290 289 286 289 289 288 289 289 291 292 288 291 293 294 293 292 291 292 289 289 288 291 293 293 295 295 294 296 296 293 291 291 293 291 288 289 287 288 286 283 282 280 278 276 278 282 281 280 280 277 281 285 286 287 288 288 288 287 289 290 286 284 285 291 288 288 289 289 287 289 289 289 289 290 291 293 294 294 295 293
Wind_Speed
24 27 26 26 27 26 26 25 24 23 22 22 21 20 19 19 21 21 20 18 16 16 14 14 13 14 14 11 12 13 9 4 2 2 2 4 7 9 10 8 2 6 5 6 7 7 8 9 11 7 2 0 1 1 2 1 1 2 1 1 4 3 1 3 4 6 4 8 5 4 4 9 5 1 1 3 5 5 5 7 2 8 7 3 5 13 13 11
24 25 27 29 27 26 26 26 25 24 23 22 20 21 19 18 18 20 20 18 17 16 16 15 15 13 12 12 13 12 7 3 2 2 12 4 11 10 5 8 5 4 6 6 4 6 5 8 7 8 2 1 0 1 2 0 1 3 1 2 6 2 3 1 3 5 8 4 10 7 4 7 6 7 1 4 3 6 4 3 3 7 6 8 10 12 12 12
22 24 25 24 27 28 26 25 26 24 23 22 22 21 20 18 17 18 19 19 18 18 17 17 16 15 13 13 13 7 7 3 3 6 11 8 11 11 9 9 5 4 2 5 5 5 9 8 10 8 2 1 1 1 0 1 1 3 1 3 6 3 1 4 3 7 1 12 8 7 4 6 5 4 1 3 6 5 7 6 2 6 8 8 8 10 11 10
22 24 25 27 24 26 26 25 26 25 23 23 22 21 21 18 16 16 17 18 18 19 18 18 18 16 16 15 11 5 6 4 6 4 10 16 15 13 12 10 6 3 1 4 6 4 8 10 10 6 1 0 4 0 2 3 2 1 3 3 3 1 0 4 5 2 8 12 9 8 4 4 4 4 4 4 7 3 4 8 11 10 13 11 11 11 10 11
22 24 25 26 29 25 26 26 25 25 24 22 22 22 20 19 17 16 16 17 18 19 19 18 18 18 16 14 10 6 9 2 6 14 18 22 19 16 14 11 8 4 3 2 6 5 7 8 11 2 1 0 2 0 3 2 3 1 6 5 3 1 1 1 3 7 5 5 11 6 8 5 2 3 5 8 6 5 8 8 9 14 15 15 14 12 10 12
23 23 25 26 28 31 28 27 26 25 24 23 22 21 20 19 18 17 16 16 17 19 18 17 18 17 16 13 8 4 8 6 3 4 7 25 23 19 16 14 12 5 4 2 1 6 8 4 5 2 0 2 2 3 3 5 3 3 3 4 1 2 2 1 3 5 2 5 7 7 4 6 5 3 4 7 6 3 4 5 10 15 17 17 15 14 12 12
23 23 24 26 26 27 28 27 26 26 25 24 22 21 20 19 18 17 16 16 16 17 18 16 16 17 16 12 4 7 9 9 1 3 8 24 24 21 19 15 13 8 4 2 5 5 7 5 4 3 1 1 4 2 7 2 3 4 5 1 2 1 3 2 1 5 3 10 6 4 5 5 6 4 2 4 2 4 3 3 11 14 13 13 14 14 16 16
23 24 24 23 26 25 24 26 27 25 25 24 23 21 20 19 19 18 17 17 16 17 18 18 18 18 19 9 8 4 7 13 14 3 3 20 21 21 17 9 11 8 8 10 7 9 7 3 4 1 2 3 2 3 2 3 2 5 5 1 1 1 1 0 1 4 4 3 1 6 6 4 4 3 2 4 4 3 2 6 9 12 14 13 15 15 13 13
24 24 24 27 28 26 26 26 26 26 25 23 22 22 21 20 19 18 18 17 17 17 19 20 21 20 16 10 9 8 13 15 3 4 12 15 18 16 15 9 10 13 11 10 10 12 3 5 6 3 2 3 3 3 5 3 4 3 6 1 1 0 0 1 3 3 3 1 3 7 4 1 1 2 1 4 7 4 4 9 12 12 13 13 14 14 13 13
25 24 25 28 32 28 27 27 27 26 26 25 24 22 21 21 20 19 18 18 17 17 19 21 21 21 12 10 6 10 7 11 2 6 10 13 11 15 16 12 17 14 11 10 9 10 4 5 7 2 4 5 4 4 1 3 2 1 2 3 4 2 1 1 1 0 0 1 1 6 3 1 2 3 4 3 7 5 7 9 10 14 13 11 11 11 12 14
27 25 25 21 18 28 26 25 25 26 25 25 25 23 22 21 20 20 19 19 18 18 19 22 22 17 10 10 14 16 3 5 5 6 11 13 15 14 16 12 13 11 13 9 11 10 8 6 2 5 2 3 4 4 1 2 1 4 4 4 3 1 0 1 3 1 1 0 2 5 1 0 2 1 5 3 8 10 10 9 9 11 11 11 11 11 10 11
28 26 25 26 25 26 27 28 27 26 26 24 23 23 22 21 21 20 21 20 20 18 19 20 24 11 7 10 12 9 3 2 6 6 9 16 14 17 14 13 14 13 13 11 10 7 4 0 3 2 4 3 4 2 3 3 1 4 4 2 1 1 1 1 3 3 1 1 2 2 3 1 0 5 10 4 6 6 11 9 10 9 10 10 10 10 9 11
27 27 26 28 28 27 28 25 26 26 25 24 23 23 22 22 21 21 20 20 20 21 18 19 16 4 6 9 12 2 2 4 5 9 7 4 6 5 11 12 13 11 11 11 12 9 4 2 2 6 2 2 3 2 2 1 2 2 1 3 0 1 2 6 0 1 2 1 0 1 2 6 8 12 2 3 9 4 6 7 7 7 8 8 9 10 10 8
26 25 26 26 29 29 27 26 26 25 25 25 24 23 23 22 21 19 20 19 22 20 17 18 9 3 2 8 2 3 1 3 7 9 8 7 12 6 7 8 8 5 1 4 9 5 6 4 4 6 3 4 3 2 1 1 1 5 2 2 2 3 3 2 2 4 3 1 1 1 3 6 6 8 5 6 8 10 8 7 6 6 6 7 7 8 10 10
26 26 28 28 28 30 29 29 26 27 26 25 24 24 24 23 21 22 19 17 19 18 18 13 5 3 2 3 4 5 7 4 7 8 9 14 13 8 8 9 8 5 2 4 7 4 7 5 5 5 5 2 1 3 2 0 1 0 3 4 1 5 3 2 1 5 6 1 1 3 2 8 6 6 2 6 7 8 9 7 6 6 6 7 6 7 9 10
28 27 27 29 29 28 30 26 27 26 27 26 26 25 23 24 21 21 21 16 17 18 11 11 6 1 2 6 2 4 4 7 9 7 5 14 13 12 10 8 5 4 5 2 3 4 4 5 7 5 5 2 1 1 0 1 2 2 5 2 4 3 3 1 2 2 2 3 0 4 5 2 4 3 0 3 6 6 7 6 6 7 8 8 7 7 7 7
29 28 28 27 28 28 30 30 28 27 27 27 25 24 23 23 21 18 18 19 11 8 8 6 6 1 7 2 2 8 5 4 5 4 5 3 9 14 12 10 4 5 4 3 3 5 3 6 1 0 1 3 2 3 3 5 2 5 0 3 4 6 1 2 3 2 1 4 4 3 2 5 2 1 2 1 5 6 6 6 6 6 7 8 7 7 8 8
30 31 30 29 29 30 28 29 29 29 27 27 25 24 23 24 24 21 17 12 7 5 4 4 2 6 9 2 11 14 5 6 9 9 6 3 7 15 13 7 3 8 6 4 0 6 3 4 4 5 2 6 5 5 8 8 7 3 2 1 1 0 6 6 4 4 5 1 4 3 4 8 9 4 3 5 1 5 8 8 8 8 7 7 8 8 8 9
30 31 32 32 30 30 31 30 30 30 29 28 27 29 28 24 12 8 9 11 12 8 8 10 11 14 15 22 9 7 8 9 7 11 7 7 5 8 7 5 10 13 7 8 3 6 2 2 2 5 10 9 10 8 7 6 8 6 7 7 4 5 4 5 6 2 9 5 4 5 8 10 11 6 5 4 4 5 8 6 5 5 6 6 8 9 9 9
31 29 31 35 32 31 31 33 32 29 34 28 23 16 12 13 9 6 7 10 15 20 15 29 19 3 8 11 8 4 7 12 11 5 7 2 11 9 7 7 7 5 9 10 5 8 5 7 10 10 7 5 4 5 8 9 6 7 6 6 7 7 3 2 1 1 3 2 5 6 8 6 7 8 8 6 4 5 6 6 7 8 8 7 7 9 10 10
31 30 30 32 34 33 32 32 35 35 35 23 24 20 14 18 21 15 20 19 16 9 4 18 17 7 1 7 11 19 13 1 4 6 9 5 9 14 6 9 10 9 7 8 11 3 7 9 10 6 7 6 6 5 7 8 3 4 5 6 6 5 5 2 2 1 2 4 4 3 3 7 10 7 7 4 4 9 10 9 8 10 9 8 8 9 10 11
31 31 32 36 36 33 34 34 35 34 31 21 21 15 14 23 3 2 19 10 8 15 7 11 16 5 1 13 18 15 9 6 4 7 4 7 9 11 5 8 13 11 6 4 5 6 9 11 7 8 9 7 7 8 8 7 6 0 6 7 6 6 1 0 1 1 0 2 5 2 4 10 11 8 6 6 8 8 10 12 12 12 10 9 8 8 9 5
31 29 29 33 41 38 37 38 35 32 19 18 17 16 15 14 10 11 8 5 13 10 2 10 19 7 1 2 8 17 14 15 14 12 11 7 10 6 12 8 9 10 7 10 11 7 7 7 8 8 8 7 6 8 6 4 2 2 2 5 7 6 6 2 2 1 1 1 1 1 2 8 6 6 9 10 9 7 7 11 11 10 13 12 11 11 10 10
32 31 27 29 33 39 40 36 34 25 18 23 20 14 15 10 14 12 14 6 9 9 9 9 16 9 5 9 4 10 19 8 12 14 7 9 15 6 10 12 13 8 11 11 11 11 5 3 7 7 8 8 6 6 7 6 6 1 2 2 3 4 3 4 5 1 1 1 2 1 5 8 6 7 8 9 9 6 6 9 10 10 10 10 10 8 10 12
34 34 33 30 28 38 34 35 20 17 19 17 11 4 10 6 13 15 13 5 4 1 4 5 8 5 5 2 3 4 1 3 5 12 9 11 9 6 8 5 7 11 10 9 8 9 7 4 3 7 9 10 7 8 8 7 7 3 3 4 3 6 5 5 6 5 3 2 1 2 2 4 3 5 11 9 2 6 9 7 10 13 11 6 8 12 10 9
35 35 36 35 34 33 38 18 18 16 19 16 15 11 9 7 6 2 8 3 10 5 4 8 5 7 4 4 5 3 8 5 2 6 9 8 2 8 6 7 5 13 12 13 10 3 7 1 6 8 10 10 9 7 7 9 6 4 5 3 6 8 8 8 5 3 1 2 1 1 7 5 6 5 4 5 4 11 6 7 13 10 10 8 11 10 10 11
37 36 36 39 39 35 22 9 14 18 19 14 13 10 8 7 3 1 9 2 5 4 10 2 9 2 2 9 8 9 10 8 3 5 6 4 8 1 14 9 4 2 6 4 1 6 2 3 4 3 9 11 9 10 5 10 7 4 1 4 9 9 9 7 7 3 1 0 1 2 2 2 5 9 6 6 6 6 5 7 10 10 9 10 10 10 9 10
37 41 36 39 44 39 15 14 20 22 22 20 17 12 9 7 4 2 1 7 6 9 6 3 4 1 1 9 10 9 2 15 7 6 6 2 2 1 5 9 10 12 7 4 12 1 6 5 5 6 5 7 10 5 5 8 7 3 2 6 7 10 6 6 6 4 1 2 4 2 1 0 4 8 7 1 2 5 7 8 8 9 9 10 10 10 10 8
33 41 43 38 44 29 9 14 19 18 10 15 11 10 8 9 3 3 6 7 2 4 4 12 2 5 2 10 2 0 5 11 10 11 3 1 1 3 6 5 6 9 2 7 9 3 2 6 12 12 8 9 5 3 4 10 5 2 3 5 4 5 4 5 3 5 0 1 5 4 2 2 8 6 6 2 1 6 8 10 10 6 7 8 9 7 4 2
34 35 42 42 29 11 11 11 13 8 14 13 14 13 13 8 4 6 10 7 5 6 6 2 6 12 10 15 8 3 12 1 3 4 8 5 3 1 0 4 6 7 3 8 5 4 1 1 2 3 7 3 5 2 1 2 4 5 6 8 6 6 3 3 5 4 3 1 6 6 3 4 4 5 6 5 6 7 7 5 4 2 1 3 4 3 4 4
41 36 37 42 20 12 15 16 14 16 16 15 15 14 12 4 7 9 12 3 7 1 3 9 7 10 14 18 11 5 5 2 6 13 10 2 2 1 4 5 4 7 6 4 4 3 2 1 1 1 1 2 3 5 6 2 6 9 3 6 7 4 6 4 3 4 2 4 4 1 1 2 6 5 5 8 5 3 6 6 6 3 2 3 4 4 4 4
38 39 41 28 11 11 18 17 17 14 18 21 17 13 11 10 6 11 6 10 11 10 12 11 10 12 19 18 11 10 8 4 9 15 16 12 11 10 11 13 12 10 8 10 6 2 2 1 1 4 3 5 4 8 3 3 1 5 8 8 9 1 4 1 1 1 3 5 1 3 1 1 7 9 6 6 9 7 5 4 7 5 4 3 3 4 5 4
37 35 39 17 16 11 8 13 13 9 18 21 16 11 9 11 14 7 5 14 3 14 10 15 17 21 17 14 10 8 5 11 5 8 11 6 9 7 2 4 5 7 10 3 6 4 2 2 2 3 3 2 4 11 2 3 1 6 10 8 7 3 2 2 3 1 3 4 3 1 2 3 4 8 12 16 17 9 4 6 6 8 8 7 7 6 5 4
40 35 21 11 12 10 13 18 14 18 18 16 14 11 6 11 10 11 12 10 8 9 14 12 16 10 15 15 12 10 6 1 14 9 10 8 9 11 9 6 10 7 6 8 10 8 5 2 6 5 1 1 1 4 11 8 8 10 5 11 8 8 6 5 4 5 7 6 1 2 2 6 4 4 1 10 10 8 3 3 4 3 4 4 3 3 3 3
39 29 13 9 11 12 17 15 16 21 16 15 13 14 16 12 10 14 9 5 6 10 13 14 17 18 14 7 4 5 4 4 5 11 11 14 12 11 15 11 7 8 4 12 4 4 12 3 3 2 2 1 9 1 3 7 2 1 2 5 6 8 5 4 4 4 3 2 1 1 5 5 6 3 7 5 4 0 0 1 0 2 1 0 1 4 4 5
30 12 12 8 12 15 17 14 15 17 16 14 14 13 15 14 12 9 9 7 10 12 16 18 14 16 12 6 5 12 4 7 9 7 6 12 12 14 8 4 10 12 13 12 4 4 3 2 2 7 3 1 2 1 2 5 9 4 5 5 5 2 9 5 1 0 2 3 5 2 5 5 8 8 10 8 1 6 2 3 1 5 5 2 5 5 5 4
15 14 10 11 10 12 16 16 15 13 12 15 14 13 11 6 2 7 7 14 13 21 19 19 11 14 12 12 11 14 6 8 11 10 10 6 4 8 9 7 10 6 12 10 4 2 11 3 1 3 3 1 0 0 1 3 2 8 3 8 2 2 5 5 4 1 1 3 5 2 7 4 1 4 4 1 4 5 5 6 6 4 2 5 6 5 5 5
14 10 12 11 11 12 15 15 17 10 10 12 13 14 3 2 1 8 6 14 13 16 15 15 8 13 18 17 16 19 9 14 14 8 9 14 4 11 11 8 7 11 9 2 8 3 8 4 1 1 2 6 1 0 3 1 0 5 7 4 8 3 3 2 5 1 2 2 3 3 3 4 6 6 3 2 3 6 7 7 4 5 4 6 5 5 3 3
11 14 11 5 6 11 15 16 13 12 10 11 14 14 1 1 3 8 13 15 13 16 18 10 13 7 11 12 10 11 15 13 14 9 10 8 6 9 19 10 7 8 11 7 5 3 2 7 2 2 0 1 1 2 11 4 2 1 2 3 1 3 1 5 7 4 6 4 1 5 2 5 6 6 8 6 7 8 6 4 6 7 7 6 5 4 5 5
15 8 6 6 10 11 15 15 10 7 8 19 16 5 6 5 2 12 15 18 7 11 5 10 8 12 9 7 16 14 11 8 14 7 5 3 5 2 14 9 7 10 12 6 3 5 2 2 6 2 2 2 4 3 8 10 9 1 4 5 1 0 2 5 0 4 5 4 5 3 3 5 7 7 8 11 10 8 7 9 7 7 8 6 6 6 6 5
7 6 8 9 13 13 16 11 11 15 16 7 4 0 2 3 4 7 18 16 6 2 6 11 12 12 13 11 12 9 6 6 11 9 6 5 11 3 7 14 9 11 5 4 5 3 4 1 9 2 3 6 5 2 2 5 4 7 11 11 12 10 6 7 7 1 2 4 3 4 7 7 9 4 9 10 7 5 6 8 8 7 5 4 5 5 5 4
12 9 7 13 15 19 20 17 12 12 3 6 8 4 3 5 6 8 8 9 11 4 3 5 5 6 8 9 11 10 9 10 11 8 4 7 6 1 5 9 12 11 12 7 8 2 6 3 9 5 6 6 3 2 1 0 0 2 3 9 9 5 5 5 6 5 2 1 3 3 1 9 8 3 4 7 6 7 8 6 7 5 4 2 2 3 3 4
5 4 9 16 15 18 17 13 9 9 4 4 1 3 4 4 7 4 8 6 7 2 5 5 9 10 7 8 9 9 12 4 10 10 3 4 6 2 5 12 13 15 9 3 5 3 10 5 7 2 2 2 3 2 1 1 1 2 4 0 3 7 4 4 2 6 8 2 2 1 2 8 6 3 2 2 3 2 1 4 5 3 3 4 5 5 5 5
7 13 9 4 11 5 12 16 15 10 4 1 3 3 2 3 8 6 6 8 5 5 7 5 4 5 7 6 11 15 15 6 5 7 4 5 6 1 1 11 19 11 14 9 11 9 4 2 10 5 3 2 4 3 2 1 0 2 1 2 1 0 1 1 3 2 3 6 7 7 9 7 6 1 1 0 0 1 1 1 4 6 4 5 5 5 4 5
9 5 7 7 5 1 13 5 14 16 13 11 7 10 5 2 2 4 10 7 2 4 6 4 6 7 3 7 9 6 10 7 5 4 4 2 3 3 4 11 17 11 8 6 8 7 4 5 8 9 11 8 5 7 14 14 10 2 2 3 6 9 7 4 4 1 3 2 6 5 8 12 1 2 1 1 1 1 3 4 3 4 6 7 5 5 6 6
9 14 5 5 3 1 3 1 3 10 7 5 7 3 4 5 1 5 8 3 1 3 4 5 4 10 7 11 6 6 10 1 8 5 8 5 2 1 3 1 7 10 7 14 12 10 3 4 4 8 13 16 12 2 4 11 7 11 11 10 7 5 5 4 5 5 11 5 8 12 15 6 4 1 1 5 5 7 7 5 6 6 5 5 5 5 5 6
3 10 17 16 5 7 3 3 2 10 14 14 10 6 9 10 4 2 4 4 2 5 3 4 6 10 7 15 12 10 12 4 2 10 5 8 0 2 4 7 6 9 8 9 9 6 3 4 9 7 9 4 4 4 6 14 11 11 6 5 5 6 6 6 7 11 4 9 8 12 10 8 10 6 7 8 7 6 6 6 6 4 5 8 7 4 4 4
7 6 10 8 15 21 16 12 10 14 9 15 6 6 8 11 8 7 1 1 3 0 8 1 11 12 17 17 12 8 10 4 7 10 3 1 5 0 4 6 4 4 2 4 2 5 6 9 4 4 4 4 3 8 11 10 12 11 11 8 9 10 9 13 13 13 8 10 17 14 8 10 13 9 12 12 11 12 11 12 10 7 4 3 5 6 6 6
1 3 4 0 3 2 7 7 15 15 15 14 3 12 12 15 12 7 5 3 4 3 4 8 11 13 16 15 14 9 13 8 5 2 6 5 7 5 4 3 1 6 3 4 2 1 4 3 3 6 5 3 1 6 6 11 4 5 11 12 12 11 14 17 19 17 14 14 17 10 2 12 14 6 8 6 6 7 4 1 2 3 6 7 6 5 6 6
5 10 7 2 4 12 12 14 6 8 11 11 6 11 13 18 17 6 2 6 5 5 0 11 12 7 10 13 12 13 16 18 17 11 3 12 2 1 5 5 6 2 3 5 3 1 5 5 8 5 4 3 6 3 4 6 8 5 5 10 13 15 17 19 18 16 10 10 11 5 4 13 14 6 4 5 7 1 1 3 7 7 4 6 6 6 6 8
1 2 2 10 8 9 10 8 9 12 10 6 6 8 7 14 15 12 4 3 16 11 8 15 13 9 6 11 9 13 14 9 12 18 18 20 17 13 12 5 8 7 3 3 2 0 3 2 1 4 6 3 3 6 3 3 5 6 6 9 14 16 17 16 14 8 6 12 14 9 9 17 6 10 6 5 4 6 6 7 6 5 5 7 8 8 8 9
1 1 1 3 4 4 14 9 9 10 12 13 9 10 10 16 10 11 5 4 1 3 7 11 12 12 5 7 9 12 9 11 15 14 17 13 11 7 2 10 15 15 9 11 3 8 7 7 6 6 6 6 4 5 8 6 4 2 9 18 23 18 14 8 8 6 13 17 13 13 20 13 3 4 5 1 5 7 8 7 6 7 7 10 11 11 10 7
Wind_Direction
216 215 210 210 203 200 196 188 189 190 189 189 190 194 195 190 181 177 178 179 164 164 155 155 149 147 144 133 132 132 130 98 92 118 185 217 155 167 123 97 42 326 0 336 337 354 344 333 325 308 266 72 260 98 226 115 146 72 164 148 286 209 193 232 190 186 179 133 195 189 194 128 132 109 168 83 57 96 78 83 20 43 44 56 95 122 134 136
217 215 210 209 205 200 194 188 188 189 188 188 187 189 194 194 188 180 176 175 167 163 158 147 146 146 132 135 132 136 107 72 157 192 217 159 160 178 145 115 167 31 8 329 342 332 336 313 306 321 323 314 303 141 148 280 121 124 198 122 229 216 238 205 195 159 124 180 162 175 173 142 178 132 218 103 140 128 99 61 82 75 56 71 95 121 135 140
216 212 211 209 206 200 193 188 187 188 188 188 187 188 190 194 193 186 176 171 165 163 157 149 141 140 138 127 131 114 99 45 17 251 237 192 149 156 155 152 166 141 64 310 321 3 309 292 296 300 291 258 288 195 63 265 146 231 114 254 251 228 313 10 343 171 154 136 143 161 200 145 197 131 168 144 169 140 155 134 53 113 129 126 126 133 143 150
216 213 209 208 211 201 191 189 185 186 188 186 185 186 187 189 192 189 180 170 165 164 159 152 144 141 136 132 128 109 74 50 252 229 227 187 180 164 163 161 163 133 91 289 283 272 278 285 281 274 299 73 291 112 125 246 125 261 120 206 241 252 110 310 355 291 147 143 151 161 141 106 181 156 144 168 123 210 218 186 162 172 158 153 153 150 151 158
219 216 209 204 204 206 193 187 186 185 186 186 183 184 185 184 187 187 181 174 163 165 164 156 148 140 135 130 130 113 86 350 245 211 213 180 176 169 162 159 161 163 150 264 300 281 253 288 289 309 133 256 302 171 238 231 188 96 207 203 249 286 74 259 295 324 141 141 134 142 123 173 143 91 158 145 154 209 203 208 185 160 159 154 158 163 158 166
218 215 207 206 205 202 191 187 185 184 183 183 182 181 182 182 182 183 181 176 165 162 164 160 150 144 134 132 135 124 135 220 229 211 247 177 172 163 161 157 180 167 109 208 265 295 294 247 243 291 8 121 249 186 264 202 150 243 293 204 250 270 139 295 342 328 159 125 136 139 180 116 142 172 187 154 168 231 215 207 180 158 167 166 154 154 164 171
216 213 210 203 211 206 191 186 184 181 180 179 179 178 177 178 179 178 178 176 167 160 158 155 150 140 135 129 104 173 189 246 4 273 238 174 171 170 171 173 153 145 143 171 241 251 261 240 184 225 178 186 265 222 262 266 168 192 240 346 347 4 131 263 350 345 98 131 151 156 138 136 132 138 201 155 239 201 235 215 169 163 152 141 151 169 170 177
216 213 208 203 202 203 191 184 182 179 179 177 176 176 174 175 174 175 173 170 165 160 152 151 145 140 137 135 127 189 216 237 242 6 191 158 166 171 165 151 149 148 154 201 201 245 251 265 234 216 239 163 213 158 281 241 162 195 254 239 238 60 260 140 36 40 58 56 5 115 120 163 154 163 124 213 184 188 151 102 116 130 144 158 161 172 175 178
218 212 208 204 203 199 193 184 181 178 176 175 173 173 171 171 171 168 169 165 162 159 155 149 149 150 150 143 159 154 219 227 76 170 159 164 163 153 130 131 152 157 184 191 189 226 126 306 280 211 256 218 275 309 275 163 277 222 217 163 83 87 235 148 57 44 64 35 73 93 92 47 157 133 212 195 191 198 135 103 123 131 145 162 172 174 174 180
217 209 208 205 196 195 193 183 178 176 174 173 173 170 168 168 166 164 164 162 158 154 155 151 148 156 154 143 142 193 236 106 135 144 165 160 144 144 161 158 165 168 165 195 192 209 177 192 224 317 285 286 267 250 269 148 216 195 170 147 144 190 127 288 146 188 70 87 41 126 132 107 309 142 271 220 191 165 122 127 139 143 162 171 173 178 182 179
210 208 204 199 206 188 187 180 176 174 173 172 169 168 164 164 163 161 160 161 154 151 152 154 154 155 162 171 158 214 7 128 158 147 148 156 145 152 171 152 163 169 177 174 195 193 213 203 353 329 313 230 335 303 291 235 188 106 141 86 79 133 126 64 89 172 81 26 93 108 103 132 344 64 221 214 187 162 135 148 156 156 165 173 177 181 188 190
207 205 199 196 194 195 184 178 174 174 170 170 166 163 161 160 160 162 161 156 153 149 154 156 162 161 158 187 200 205 328 130 148 139 139 156 167 171 156 158 167 180 175 170 196 208 208 57 353 307 246 8 250 312 273 241 92 168 124 169 279 54 76 188 138 221 95 217 173 155 80 306 307 211 224 193 147 168 148 163 165 170 171 174 178 182 186 197
203 202 200 194 189 189 183 177 174 171 166 164 164 161 157 155 158 160 159 155 154 151 157 159 158 154 159 191 227 315 307 134 127 122 121 95 95 113 151 159 173 182 185 175 178 208 157 179 299 287 276 338 255 248 279 351 199 130 29 137 45 7 323 249 253 106 111 287 100 187 214 257 234 236 236 194 144 144 144 166 178 178 178 179 180 184 191 194
196 194 192 191 186 184 178 175 172 166 166 164 160 156 151 150 153 155 153 153 154 151 157 157 153 112 181 214 21 274 254 135 125 123 142 132 119 120 120 150 171 197 259 202 182 157 158 188 230 260 291 250 269 308 339 359 31 174 232 95 166 130 252 271 167 185 118 238 154 93 194 276 265 268 254 203 159 154 176 190 190 188 187 186 187 186 190 196
189 190 191 189 187 178 173 170 170 166 164 161 156 148 146 147 150 150 141 139 155 151 154 143 149 97 140 236 352 284 105 114 152 166 158 137 127 112 139 153 163 178 191 191 150 151 170 156 207 248 255 246 176 314 329 337 344 207 155 257 303 150 276 295 327 173 155 296 162 108 267 239 258 264 286 185 167 164 180 193 198 200 198 196 194 193 194 197
186 187 187 190 182 176 167 165 166 163 161 155 149 144 142 141 144 145 142 146 153 145 133 141 182 18 116 193 216 97 133 169 197 172 196 137 148 152 156 142 118 108 125 349 79 116 152 147 201 207 246 272 224 160 25 47 302 296 159 240 204 155 232 355 279 214 185 129 337 183 207 317 293 257 299 144 155 169 180 203 203 201 204 202 200 199 199 196
184 182 183 187 179 173 167 164 160 162 156 147 141 135 136 134 133 137 133 131 136 132 136 155 144 287 152 302 80 174 193 204 142 152 165 188 135 128 121 125 141 142 88 76 102 115 150 179 175 329 181 207 180 153 152 226 262 235 88 173 207 174 215 231 302 268 201 144 201 251 191 234 256 298 250 280 166 161 183 206 217 211 203 204 200 195 197 200
181 183 181 182 176 170 166 160 157 156 150 140 134 132 132 127 126 124 122 121 119 119 133 50 167 93 285 161 187 202 148 130 162 161 147 187 139 137 135 144 128 138 124 115 347 175 175 189 161 204 158 206 200 168 182 207 187 181 177 158 287 100 176 190 153 243 140 295 182 206 246 262 267 283 243 230 233 178 202 207 211 207 209 208 201 198 197 199
180 182 182 177 175 168 162 158 155 149 142 133 127 120 115 109 100 96 124 139 137 140 150 192 174 190 195 200 189 105 157 146 108 138 159 131 159 132 117 85 137 139 157 162 233 160 168 78 148 179 208 196 205 194 171 208 176 185 167 190 184 169 223 205 226 274 174 166 201 185 213 234 249 268 277 270 225 192 224 234 243 234 217 213 203 202 199 204
180 180 183 174 169 165 163 156 148 141 133 130 126 117 116 128 128 151 162 187 190 182 186 176 186 132 32 120 163 139 90 126 128 209 145 180 130 140 122 133 143 159 153 180 165 197 145 174 194 200 193 183 199 180 185 226 187 188 184 183 200 187 218 309 253 278 127 106 223 211 230 248 261 246 249 245 226 227 241 243 233 231 224 214 211 205 206 208
178 177 176 170 163 158 158 153 144 142 140 140 138 140 159 152 152 173 172 188 189 213 146 182 179 194 86 134 121 133 132 135 131 165 178 161 147 134 159 135 154 172 193 167 154 196 154 184 209 182 183 183 198 200 214 242 247 184 202 188 226 184 205 251 212 268 344 142 258 250 271 263 256 261 257 265 187 229 217 224 234 231 227 220 207 212 211 216
175 176 175 172 158 156 150 145 144 145 144 148 152 162 160 165 106 124 142 149 223 238 318 182 203 234 359 154 156 141 117 101 112 164 223 147 176 146 197 153 167 172 167 142 122 158 188 202 193 191 187 186 199 208 225 220 243 107 172 203 195 232 186 301 25 38 285 95 258 3 208 256 260 267 265 238 208 226 210 204 212 211 224 227 220 218 221 224
170 170 168 173 158 153 150 147 147 147 150 157 167 165 169 151 106 98 67 63 168 219 256 179 199 228 151 211 167 143 144 162 167 186 182 163 171 171 152 146 174 165 163 168 173 152 182 219 205 198 189 189 208 215 220 217 136 135 78 126 208 198 138 238 287 69 6 132 231 51 340 279 281 257 248 244 221 232 213 213 221 205 210 214 213 208 211 218
165 161 158 158 156 148 147 147 146 151 167 168 167 165 151 125 131 136 120 139 166 222 218 201 184 194 194 165 208 165 160 171 139 183 198 165 165 169 148 165 158 165 185 178 166 169 183 164 197 177 193 195 203 217 203 219 240 259 153 138 146 167 210 156 200 96 352 356 71 27 344 304 258 259 270 255 237 242 233 219 231 233 226 216 216 219 211 210
162 161 158 153 150 143 144 140 151 168 163 163 157 121 121 117 150 165 117 95 28 269 170 168 178 199 194 355 158 136 144 108 185 168 174 165 151 133 183 156 149 185 173 172 145 160 207 208 98 165 185 200 203 209 205 171 225 274 230 173 184 167 109 83 102 100 31 313 312 128 8 298 291 269 243 263 346 255 240 214 229 230 230 230 229 226 227 232
161 161 159 152 148 146 140 144 171 160 162 176 165 156 122 132 179 237 104 97 171 176 106 191 164 209 139 186 137 124 107 158 189 170 158 183 140 151 136 177 168 181 170 164 166 175 190 207 159 181 180 190 193 192 204 168 191 191 257 160 143 135 122 127 138 87 91 158 299 85 165 265 329 310 268 271 258 245 250 211 232 228 228 220 225 226 220 221
163 159 161 153 145 146 145 181 151 151 169 179 167 137 123 134 72 152 151 318 195 173 156 144 171 223 153 179 158 141 160 190 55 113 166 226 175 304 155 168 131 141 164 147 107 229 87 118 167 163 174 182 186 197 218 167 148 218 247 127 119 112 127 162 139 129 184 195 327 33 120 186 297 288 270 278 266 274 278 247 238 232 226 220 223 221 218 220
164 155 157 155 148 158 171 139 157 175 178 159 158 137 115 104 79 33 110 146 229 127 183 190 196 2 47 166 170 170 245 133 122 212 196 208 124 19 148 179 168 161 167 129 191 305 147 161 178 169 165 170 192 201 176 154 150 214 191 154 139 146 158 136 117 120 135 107 262 322 290 283 257 264 291 289 286 284 263 251 242 233 228 228 227 221 218 216
161 153 151 156 155 147 109 151 168 168 132 133 90 94 88 88 68 159 147 177 115 112 95 140 253 142 106 153 191 323 130 163 160 170 153 94 343 142 164 196 145 151 59 178 174 189 297 174 185 168 164 191 193 219 171 158 119 249 147 92 79 78 79 120 95 99 36 94 258 249 201 183 278 272 311 336 239 256 253 247 245 248 242 237 236 242 240 233
153 156 152 149 143 128 146 145 154 134 138 116 110 95 94 95 80 186 172 224 140 177 187 151 180 169 162 163 185 161 157 24 64 121 158 166 191 23 156 147 123 117 91 32 81 204 232 318 206 91 192 164 130 96 139 201 141 126 92 78 42 40 44 21 68 92 71 318 253 236 259 146 288 267 221 193 221 205 245 284 291 291 306 254 237 192 154 148
150 154 152 147 157 157 135 157 160 150 125 115 100 95 94 47 183 159 186 168 110 336 87 164 167 148 158 168 167 197 139 103 129 143 156 150 158 256 127 75 50 74 63 41 34 334 6 8 64 280 327 130 100 79 6 80 131 128 103 123 87 6 17 24 351 38 139 265 260 259 222 173 190 292 283 240 273 226 198 230 232 233 188 141 147 158 166 174
151 154 154 153 129 133 156 160 157 145 136 120 110 119 138 140 240 193 169 142 154 189 167 159 169 161 171 179 160 162 146 115 161 161 166 179 169 177 198 169 161 152 168 169 174 43 32 8 265 354 260 143 115 87 349 25 6 80 103 111 122 177 37 329 12 298 227 200 259 334 262 3 246 232 254 292 275 267 228 196 199 191 202 199 194 196 199 204
153 153 151 141 132 149 131 130 124 124 127 125 125 145 168 164 176 178 144 169 197 164 194 163 166 171 169 156 172 151 153 152 190 176 152 153 157 205 231 146 197 158 163 221 112 81 283 281 349 310 9 219 147 139 153 117 351 120 141 141 114 100 83 186 260 232 304 282 264 241 295 257 254 283 240 244 253 241 227 234 205 173 181 191 198 204 203 215
148 148 149 142 137 134 135 141 137 129 128 132 141 159 200 178 182 163 159 196 162 173 142 162 153 144 158 173 171 158 136 140 161 166 159 161 172 181 218 238 169 129 104 167 149 183 104 286 252 149 194 164 209 159 168 159 161 184 162 157 175 149 154 191 178 188 209 204 274 277 95 229 129 244 239 230 251 267 228 216 205 209 197 192 202 196 212 226
143 144 127 109 120 132 144 142 140 133 129 148 164 179 177 180 170 171 165 173 144 136 147 144 147 150 174 163 149 173 147 142 192 153 170 160 191 191 191 194 200 125 126 137 239 136 186 157 279 274 263 212 175 239 126 112 86 283 168 77 116 202 141 144 201 146 157 149 66 254 212 188 177 260 284 244 294 307 87 231 13 219 241 312 243 233 238 239
136 139 124 129 134 150 146 148 141 132 143 159 170 192 193 178 170 160 178 145 150 147 142 141 147 154 157 153 180 175 169 123 187 153 199 196 188 188 181 165 183 176 163 169 160 138 79 202 340 309 38 114 201 202 186 163 170 216 101 191 207 148 101 103 52 150 116 66 249 178 310 289 294 313 270 275 205 250 312 270 262 245 250 222 221 235 243 236
136 136 130 131 132 153 147 152 144 138 157 167 177 191 199 176 181 131 150 155 152 135 142 146 178 153 169 169 172 179 181 120 177 161 190 167 211 207 188 206 179 171 177 136 189 203 154 200 332 44 195 323 169 222 292 46 160 103 159 212 183 124 121 132 181 353 76 159 257 118 215 290 25 278 330 314 235 260 243 238 236 260 263 221 231 231 229 209
137 132 123 139 147 149 148 148 139 142 159 181 194 197 151 128 231 120 124 117 134 146 147 156 171 171 172 168 180 173 170 162 182 178 176 174 231 187 183 186 198 181 176 236 141 225 114 76 286 275 226 274 345 74 68 330 15 163 192 185 128 207 216 272 101 170 170 244 260 268 245 256 185 235 335 297 211 247 244 244 261 268 264 234 238 253 248 231
121 129 142 138 125 149 147 142 139 149 162 188 200 193 157 159 189 141 145 142 150 155 156 176 144 208 162 175 161 164 167 181 164 184 148 215 196 188 185 175 188 162 173 161 133 153 69 129 294 321 92 273 8 106 183 215 324 15 79 125 78 101 153 134 201 170 119 234 109 291 90 231 211 216 200 236 220 224 225 221 239 236 234 225 226 212 182 178
135 137 139 131 144 144 144 139 135 160 187 191 188 193 183 165 195 151 147 143 155 151 180 152 173 144 169 167 156 163 187 163 166 185 186 182 186 230 179 177 170 175 171 163 145 161 143 106 152 264 288 107 188 196 203 160 153 122 135 188 238 20 225 115 100 143 165 174 184 201 300 275 258 216 193 222 224 220 188 200 217 224 230 220 212 189 186 177
126 111 126 156 145 149 136 135 157 184 193 192 141 198 145 159 153 155 151 146 126 18 148 162 159 167 161 139 168 159 145 142 169 182 179 160 180 155 219 178 144 168 118 125 133 177 91 102 144 159 108 211 249 243 195 196 203 179 169 190 180 135 134 163 235 16 128 121 218 146 245 269 270 203 202 224 226 201 208 191 202 226 232 213 200 192 174 164
142 145 146 155 153 159 151 158 197 183 135 148 172 163 159 156 125 154 144 149 138 132 59 113 144 133 136 159 157 161 155 163 172 169 194 158 189 124 198 155 154 154 160 171 168 230 141 117 105 152 212 185 231 307 257 106 114 219 168 203 176 178 119 139 177 223 54 236 122 157 186 266 241 230 214 222 203 203 197 186 195 203 198 189 161 151 169 156
126 59 105 148 165 169 163 178 157 156 164 217 212 36 136 130 133 199 141 162 145 122 129 153 168 140 181 149 152 153 158 157 171 185 124 131 184 209 192 157 146 158 133 203 97 192 82 105 90 19 63 307 312 300 318 26 31 299 272 203 149 200 175 157 162 179 164 170 162 262 255 254 285 253 239 232 205 207 155 170 170 179 194 182 158 153 145 133
123 120 123 137 173 207 179 170 166 191 202 170 95 144 310 152 144 153 154 162 139 161 152 135 146 162 144 144 155 165 164 134 204 135 133 158 183 142 24 157 159 163 168 205 163 201 93 253 116 114 52 355 334 350 332 334 13 213 220 192 206 33 40 148 98 60 122 218 167 141 234 268 258 321 282 10 341 176 161 193 158 160 203 194 181 178 173 157
112 56 49 133 154 89 194 201 184 169 168 158 147 156 144 63 288 148 149 162 114 142 126 158 154 130 92 145 151 142 177 156 141 223 115 126 127 343 355 168 166 169 176 161 131 143 90 180 142 145 158 164 188 209 208 204 197 217 234 170 186 182 180 134 169 158 165 257 135 186 235 235 225 34 30 346 340 282 263 245 249 184 180 190 197 185 174 164
158 134 140 112 233 9 312 45 162 160 153 144 134 182 103 118 124 10 135 132 156 100 98 131 105 110 127 131 130 152 175 52 140 192 153 169 141 352 283 237 176 171 163 152 145 142 138 151 186 173 180 191 196 168 43 99 117 188 204 176 192 185 179 138 117 132 204 191 183 224 225 236 120 188 154 239 220 212 216 224 209 214 223 210 196 183 178 169
132 151 158 155 130 242 204 239 224 176 181 166 162 173 153 151 154 90 338 129 239 135 95 127 154 141 167 147 160 166 171 100 60 133 167 141 254 188 23 108 66 42 133 129 157 98 101 165 217 189 198 163 152 160 164 139 172 207 136 173 175 160 162 166 178 214 129 88 241 239 237 252 232 187 216 220 227 235 233 217 218 216 208 195 190 175 156 136
153 197 194 175 158 176 180 229 220 189 178 168 157 131 146 140 162 153 33 341 141 183 113 330 165 163 164 162 151 155 166 142 145 161 115 80 113 2 68 356 70 318 97 132 147 124 149 199 215 143 214 134 147 153 160 155 175 181 178 167 163 177 155 188 216 221 131 192 226 228 213 235 243 177 211 207 199 208 209 213 211 196 160 149 155 156 161 166
41 49 165 242 342 101 181 168 169 177 163 171 124 153 155 156 171 165 153 136 131 196 122 150 182 168 167 155 154 155 162 141 196 159 155 157 151 129 81 48 31 18 80 122 138 138 131 222 167 174 186 142 258 156 173 152 161 146 180 182 178 167 189 199 216 215 192 216 230 243 206 250 251 210 215 221 227 221 228 51 87 148 187 184 160 159 165 172
176 159 188 24 7 145 125 118 127 143 170 165 138 187 165 165 167 147 143 142 148 195 95 151 171 168 155 161 157 162 180 181 163 153 201 122 107 79 157 178 153 30 53 142 142 298 133 247 139 137 156 203 228 212 143 151 140 176 208 191 185 189 199 207 214 221 210 255 267 298 314 278 260 166 205 228 214 186 61 166 202 212 163 161 167 174 178 185
353 309 347 154 125 143 124 121 144 162 160 182 152 184 166 174 169 162 155 182 170 165 169 170 160 142 154 158 161 174 183 160 157 166 167 151 169 189 147 241 149 143 142 119 128 348 119 229 91 107 164 259 229 178 158 95 140 159 185 194 203 199 206 215 214 206 163 216 237 252 264 252 274 125 202 189 167 164 198 216 223 224 172 168 176 192 191 193
297 323 131 122 94 170 148 151 153 142 191 192 174 179 178 184 164 151 118 357 53 153 161 139 147 130 164 158 186 188 169 155 170 159 168 169 149 154 76 150 160 156 172 169 167 154 173 145 148 151 162 220 261 152 129 110 80 282 235 208 200 202 205 213 225 197 198 204 215 221 233 238 150 187 179 124 153 193 207 214 221 230 201 181 188 194 198 188